[[{"header":{"parameterUnit":"m.s-1","parameterCategory":1,"la1":30.2992,"la2":30.254,"lo1":-89.0895,"lo2":-89.0443,"dy":0.0025,"dx":0.0025,"nx":19,"ny":19,"refTime":"2026-04-03T03:00:00:Z","depth":0,"parameterNumber":2,"parameterNumberName":"U-component_of_WINDS"},"data":[0,0,0,-4.5165,-4.5168,-4.5327,-4.5328,-4.5533,-4.5535,0,0,0,0,0,0,0,0,0,0,0,-4.5118,-4.5119,-4.5164,-4.5168,-4.5327,-4.5328,-4.5533,-4.5535,0,0,0,0,0,0,0,0,0,0,0,-4.5117,-4.5119,-4.5121,-4.5169,-4.5327,-4.5328,-4.5532,-4.5412,0,0,0,0,0,0,0,0,0,0,-4.5257,-4.5214,-4.5119,-4.5121,-4.517,-4.5327,-4.5328,-4.5406,-4.5419,-4.5462,0,-4.5499,0,-4.552,-4.5549,-4.5549,0,0,0,-4.5168,-4.5203,-4.5246,-4.5121,-4.5171,-4.5327,-4.5255,-4.5413,-4.5428,-4.5479,-4.5502,-4.5509,-4.5524,-4.555,-4.5551,-4.5796,-4.5797,0,0,-4.5159,-4.5147,-4.5235,-4.5255,-4.523,-4.525,-4.526,-4.5422,-4.5446,-4.5503,-4.5514,-4.5527,-4.5551,-4.5553,-4.5795,-4.5796,0,0,0,-4.5134,-4.514,-4.5179,-4.5247,-4.5275,-4.5255,-4.5267,-4.5439,-4.5453,-4.5516,-4.5529,-4.5553,-4.5555,-4.5794,-4.5796,-4.5839,0,0,0,-4.5129,-4.5126,-4.5175,-4.5169,-4.5273,-4.5359,-4.5279,-4.5441,-4.546,-4.5528,-4.5553,-4.5557,-4.5793,-4.5795,-4.5836,-4.5861,0,0,0,-4.5107,-4.5123,-4.5147,-4.5168,-4.5236,-4.5357,-4.538,-4.5446,-4.5468,-4.555,-4.5558,-4.5792,-4.5794,-4.5832,-4.5856,-4.5921,0,0,0,-4.508,-4.5183,-4.5147,-4.5267,-4.5235,-4.5384,-4.5379,-4.549,-4.5565,-4.5554,-4.5793,-4.5795,-4.5831,-4.5852,-4.5918,-4.5973,-4.5995,0,0,-4.5203,-4.5197,-4.5269,-4.5242,-4.5393,-4.536,-4.5519,-4.56,-4.5619,-4.5736,-4.5742,-4.5837,-4.5855,-4.5921,-4.6129,-4.6147,0,0,0,-4.5304,-4.5355,-4.5398,-4.5469,-4.5534,-4.5592,-4.565,-4.5681,-4.5781,-4.5677,-4.588,-4.5891,-4.593,-4.5957,-4.5972,-4.6006,-4.5808,-4.5808,-4.5807,-4.5456,-4.5477,-4.5597,-4.5637,-4.5707,-4.5768,-4.5826,-4.5877,-4.5877,-4.5925,-4.5959,-4.6083,-4.6114,-4.6125,-4.616,-4.5992,-4.5992,-4.5992,-4.5992,-4.5635,-4.571,-4.5711,-4.5826,-4.5849,-4.5947,-4.601,-4.6007,-4.6102,-4.6058,-4.6094,-4.6042,-4.6144,-4.6175,-4.5996,-4.5995,-4.5995,-4.5994,-4.5994,-4.5735,-4.5775,-4.5811,-4.5918,-4.5998,-4.6037,-4.6128,-4.6146,-4.6162,-4.6198,-4.6235,-4.6234,-4.6234,-4.6215,-4.6215,-4.6216,-4.6216,-4.6216,-4.6217,-4.5823,-4.5863,-4.5937,-4.6017,-4.6066,-4.6133,-4.6198,-4.6247,-4.6305,-4.6311,-4.6311,-4.6306,-4.6151,-4.611,-4.6223,-4.6222,-4.6221,-4.6221,-4.622,-4.5992,-4.5957,-4.6072,-4.6122,-4.6218,-4.6297,-4.632,-4.6418,-4.6462,-4.6507,-4.6496,-4.6379,-4.6374,-4.6362,-4.6328,-4.6492,-4.6492,-4.6492,-4.6492,-4.6074,-4.6075,-4.6197,-4.6275,-4.6354,-4.6387,-4.6517,-4.657,-4.6618,-4.6647,-4.6627,-4.6585,-4.6572,-4.6575,-4.6558,-4.6527,-4.6737,-4.6737,-4.6737,-4.6179,-4.6188,-4.6295,-4.6342,-4.642,-4.6487,-4.661,-4.67,-4.6749,-4.6748,-4.6669,-4.6659,-4.6591,-4.6569,-4.6561,-4.6535,-4.6478,0,0]},{"header":{"parameterUnit":"m.s-1","parameterCategory":1,"la1":30.2992,"la2":30.254,"lo1":-89.0895,"lo2":-89.0443,"dy":0.0025,"dx":0.0025,"nx":19,"ny":19,"refTime":"2026-04-03T03:00:00:Z","depth":0,"parameterNumber":3,"parameterNumberName":"V-component_of_WINDS"},"data":[0,0,0,4.0197,4.0199,4.0312,4.0313,4.0452,4.0454,0,0,0,0,0,0,0,0,0,0,0,4.0162,4.0163,4.0197,4.02,4.0312,4.0313,4.0452,4.0454,0,0,0,0,0,0,0,0,0,0,0,4.0161,4.0163,4.0164,4.02,4.0312,4.0313,4.0452,4.0368,0,0,0,0,0,0,0,0,0,0,4.0259,4.0225,4.0162,4.0164,4.0201,4.0312,4.0313,4.0364,4.0373,4.04,0,4.0424,0,4.0441,4.0463,4.0463,0,0,0,4.02,4.0217,4.025,4.0164,4.0202,4.0312,4.0262,4.0369,4.038,4.0412,4.0426,4.0431,4.0444,4.0464,4.0464,4.0621,4.0621,0,0,4.0194,4.018,4.0243,4.0257,4.0241,4.0258,4.0265,4.0376,4.0389,4.0426,4.0434,4.0446,4.0464,4.0466,4.062,4.0621,0,0,0,4.0176,4.0176,4.0206,4.0251,4.0272,4.0261,4.027,4.0384,4.0395,4.0436,4.0447,4.0465,4.0467,4.0619,4.062,4.0644,0,0,0,4.0172,4.0165,4.0203,4.0196,4.027,4.033,4.0276,4.0388,4.0401,4.0447,4.0465,4.0468,4.0619,4.062,4.0642,4.0657,0,0,0,4.0155,4.0163,4.018,4.0195,4.0244,4.0328,4.0346,4.0391,4.0408,4.0463,4.0469,4.0618,4.062,4.064,4.0654,4.0696,0,0,0,4.0132,4.0196,4.018,4.0256,4.0243,4.0343,4.0345,4.0419,4.047,4.0466,4.0619,4.062,4.0639,4.0652,4.0694,4.073,4.0743,0,0,4.0205,4.0204,4.025,4.0239,4.0339,4.0326,4.043,4.0487,4.0503,4.058,4.0584,4.0643,4.0653,4.0696,4.0824,4.0835,0,0,0,4.0269,4.0302,4.0331,4.0381,4.0429,4.0471,4.0515,4.0537,4.0604,4.0541,4.067,4.0676,4.0702,4.0719,4.0728,4.0752,4.0628,4.0628,4.0628,4.035,4.0372,4.045,4.0485,4.0533,4.058,4.0621,4.0658,4.0662,4.0692,4.0715,4.0791,4.0811,4.0818,4.0842,4.0736,4.0736,4.0736,4.0736,4.046,4.051,4.0519,4.0598,4.062,4.0685,4.0734,4.0736,4.08,4.0774,4.0797,4.0768,4.083,4.0852,4.0738,4.0737,4.0737,4.0737,4.0737,4.0516,4.0544,4.0572,4.0649,4.0706,4.0739,4.0802,4.0819,4.0834,4.0857,4.0885,4.0884,4.0887,4.0869,4.087,4.087,4.087,4.087,4.0871,4.0562,4.0594,4.0646,4.0707,4.0743,4.0792,4.0843,4.0878,4.0922,4.0929,4.0929,4.0931,4.0832,4.0807,4.0875,4.0874,4.0873,4.0873,4.0873,4.0665,4.0646,4.0727,4.0764,4.0837,4.0894,4.0916,4.0988,4.1019,4.105,4.1049,4.0973,4.0972,4.0965,4.0944,4.1044,4.1044,4.1044,4.1044,4.0713,4.0716,4.0804,4.0863,4.0921,4.0951,4.1043,4.1084,4.1123,4.1144,4.1132,4.1107,4.1099,4.1103,4.1093,4.1074,4.1204,4.1204,4.1204,4.0778,4.0788,4.0863,4.0904,4.0964,4.1015,4.1103,4.1169,4.1208,4.1211,4.1162,4.1155,4.1114,4.1099,4.1098,4.1082,4.1048,0,0]}]]